TimeEST,TemperatureF,Dew PointF,Humidity,Sea Level PressureIn,VisibilityMPH,Wind Direction,Wind SpeedMPH,Gust SpeedMPH,PrecipitationIn,Events,Conditions,WindDirDegrees,DateUTC
12:53 AM,78.1,61.0,56,30.06,10.0,ENE,13.8,-,N/A,,Mostly Cloudy,60,2013-11-05 05:53:00
1:53 AM,79.0,64.0,60,30.05,10.0,ENE,13.8,23.0,N/A,,Mostly Cloudy,70,2013-11-05 06:53:00
2:53 AM,79.0,63.0,58,30.04,10.0,ENE,17.3,25.3,N/A,,Mostly Cloudy,70,2013-11-05 07:53:00
3:53 AM,78.1,64.0,62,30.03,10.0,ENE,18.4,25.3,N/A,,Mostly Cloudy,70,2013-11-05 08:53:00
4:53 AM,79.0,64.0,60,30.04,10.0,East,20.7,28.8,N/A,,Mostly Cloudy,80,2013-11-05 09:53:00
5:53 AM,79.0,66.0,64,30.04,10.0,East,19.6,26.5,N/A,,Mostly Cloudy,80,2013-11-05 10:53:00
6:53 AM,79.0,66.0,64,30.05,10.0,ENE,20.7,26.5,N/A,,Overcast,70,2013-11-05 11:53:00
7:53 AM,80.1,66.9,64,30.08,10.0,ENE,18.4,26.5,N/A,,Overcast,70,2013-11-05 12:53:00
8:53 AM,79.0,66.0,64,30.09,10.0,ENE,23.0,28.8,0.00,,Overcast,70,2013-11-05 13:53:00
9:53 AM,81.0,66.0,60,30.10,10.0,East,19.6,26.5,0.00,,Mostly Cloudy,80,2013-11-05 14:53:00
10:53 AM,82.0,66.9,60,30.10,10.0,East,18.4,28.8,N/A,,Mostly Cloudy,80,2013-11-05 15:53:00
11:53 AM,84.0,66.0,55,30.07,10.0,ENE,23.0,29.9,N/A,,Mostly Cloudy,70,2013-11-05 16:53:00
12:53 PM,82.9,64.9,54,30.06,10.0,East,20.7,28.8,N/A,,Mostly Cloudy,90,2013-11-05 17:53:00
1:53 PM,82.0,66.9,60,30.04,10.0,East,19.6,28.8,N/A,,Overcast,90,2013-11-05 18:53:00
2:53 PM,82.9,68.0,60,30.03,10.0,East,18.4,25.3,N/A,,Overcast,90,2013-11-05 19:53:00
3:53 PM,82.0,66.9,60,30.03,10.0,ENE,16.1,27.6,N/A,,Overcast,70,2013-11-05 20:53:00
4:53 PM,81.0,66.9,62,30.04,10.0,East,19.6,-,N/A,,Overcast,80,2013-11-05 21:53:00
5:53 PM,80.1,68.0,67,30.04,10.0,East,21.9,28.8,N/A,,Overcast,80,2013-11-05 22:53:00
6:44 PM,80.6,68.0,65,30.05,10.0,ENE,19.6,28.8,N/A,,Overcast,70,2013-11-05 23:44:00
6:53 PM,80.1,68.0,67,30.06,10.0,East,19.6,26.5,N/A,,Overcast,80,2013-11-05 23:53:00
7:53 PM,80.1,66.9,64,30.06,10.0,ENE,21.9,26.5,N/A,,Overcast,70,2013-11-06 00:53:00
8:04 PM,80.6,66.2,61,30.07,10.0,East,16.1,28.8,N/A,,Overcast,80,2013-11-06 01:04:00
8:53 PM,80.1,66.9,64,30.07,10.0,East,18.4,25.3,N/A,,Overcast,90,2013-11-06 01:53:00
9:53 PM,80.1,66.9,64,30.08,10.0,ENE,17.3,27.6,N/A,,Overcast,70,2013-11-06 02:53:00
10:53 PM,79.0,66.9,66,30.08,10.0,East,16.1,25.3,N/A,,Overcast,80,2013-11-06 03:53:00
11:53 PM,79.0,66.0,64,30.06,10.0,ENE,19.6,29.9,N/A,,Overcast,70,2013-11-06 04:53:00